Weather Roundup
Issued by NWS Springfield, MO

Home | Current Version | Previous Version | Text Only | Print | Product List | Glossary On
Versions: 1 2 3 4 5 6 7 8 9 10 11 12 13 14 15 16 17 18 19 20 21 22 23 24 25 26 27 28 29 30 31 32 33 34 35 36 37 38 39 40 41 42 43 44 45 46 47 48 49 50
000
NZUS99 KSGF 290307
HRRSGF

HOURLY WEATHER
NATIONAL WEATHER SERVICE SPRINGFIELD MO
1000 PM CDT TUE MAR 28 2017

......SGF CWA......

CITY           SKY/WX    TMP DP  RH WIND       PRES   REMARKS
SPRINGFIELD    CLEAR     59  50  72 E10       29.95R
JOPLIN         CLOUDY    59  53  80 E12       29.86F
WEST PLAINS    CLOUDY    58  50  75 E8        30.03R
ROLLA          CLOUDY    53  49  86 E10       30.04F
OSAGE BEACH    CLOUDY    53  49  86 E10G18    30.03F

......SURROUNDING SGF CWA......

CITY           SKY/WX    TMP DP  RH WIND       PRES   REMARKS
CHANUTE        CLOUDY    57  50  77 E16G25    29.86F
PARSONS        CLOUDY    60  51  72 E9G22     29.85F
COFFEYVILLE    CLOUDY    61  52  72 E18G26    29.81F
EMPORIA        CLOUDY    53  51  93 NE21      29.89F
GROVE OK       CLOUDY    68  55  64 E14G22    29.84R
ROGERS AR      CLOUDY    65  54  67 E13       29.87F
HARRISON AR    CLOUDY    62  55  77 SE13      29.94R
NEAR YELLVILLE CLEAR     63  48  59 E7        29.94S

......KANSAS AND MISSOURI......

CITY           SKY/WX    TMP DP  RH WIND       PRES   REMARKS
KANSAS CTY INT CLOUDY    53  49  86 E16       30.02R
DOWNTOWN KC    CLOUDY    54  50  86 E10       30.02R
COLUMBIA       CLOUDY    54  50  86 E14G22    30.05F
SEDALIA        CLOUDY    56  50  80 E15G21    30.03F
ST JOSEPH      CLOUDY    53  49  86 E12       30.04R
ST LOUIS       CLOUDY    56  47  71 NE13      30.11R
SPIRIT OF STL  CLOUDY    55  49  80 E10       30.08F
KIRKSVILLE     CLOUDY    51  47  86 E13       30.10F
WICHITA        TSTM      51  51 100 N15       29.88S FOG
TOPEKA         CLOUDY    53  51  93 E13       30.00R
OLATHE         CLOUDY    52  51  97 E15       30.00R

......TENNESSEE......

CITY           SKY/WX    TMP DP  RH WIND       PRES   REMARKS
MEMPHIS        CLEAR     68  55  63 NE12      29.97R
NASHVILLE      CLEAR     59  53  80 NE6       30.06R

......ARKANSAS.......

CITY           SKY/WX    TMP DP  RH WIND       PRES   REMARKS
FAYETTEVILLE   CLOUDY    66  58  75 E9        29.85F
FT SMITH       CLOUDY    70  57  63 E15G22    29.83R
LITTLE ROCK    PTCLDY    65  60  84 NE10      29.93R

......OKLAHOMA.......

CITY           SKY/WX    TMP DP  RH WIND       PRES   REMARKS
TULSA          CLOUDY    67  57  70 E6        29.74S
PONCA CITY     TSTM      57  52  83 E23G32    29.70F
MCALESTER      CLOUDY    72  62  71 SE12G21   29.75S
OKLAHOMA CITY  TSTM      56  54  93 VRB3G17   29.77R VSB 3/4

......IOWA............

CITY           SKY/WX    TMP DP  RH WIND       PRES   REMARKS
DES MOINES     CLOUDY    51  43  74 E8        30.14R
QUAD CITIES    PTCLDY    40  36  86 CALM      30.17S

......ILLINOIS........

CITY           SKY/WX    TMP DP  RH WIND       PRES   REMARKS
QUINCY         CLOUDY    51  47  86 E13       30.12S
CHICAGO        CLOUDY    40  35  83 NE9       30.21R WCI  34




USA.gov is the U.S. government's official web portal to all federal, state and local government web resources and services.